Wind_Speed
19 16 13 11 10 10 11 11 12 12 13 13 14 14 14 13 13 15 17 22 24 23 20 19 18 19 19
14 11 9 8 9 11 13 14 15 15 14 15 16 16 16 16 16 16 15 16 17 20 20 18 16 17 17
8 9 9 10 12 14 15 16 17 18 18 18 18 17 17 17 17 18 18 19 19 20 21 20 19 20 20
10 10 11 12 15 16 16 17 18 18 18 19 19 18 18 17 17 18 18 18 18 19 20 20 21 21 20
12 12 13 15 16 16 16 16 18 18 18 18 18 17 17 17 17 18 17 17 16 17 18 20 21 22 24
13 13 14 14 15 16 17 16 16 17 16 16 16 16 16 17 17 18 18 18 19 20 21 21 21 21 20
14 13 14 15 16 17 17 17 15 15 15 15 15 15 16 17 18 19 19 20 20 21 22 22 22 23 22
14 14 15 16 17 17 17 17 16 15 15 15 16 16 16 17 18 19 19 20 21 21 21 22 22 22 21
14 14 15 16 17 17 17 17 16 17 17 17 17 17 17 18 18 20 20 21 21 22 22 22 22 22 22
14 14 15 15 16 17 18 18 18 18 20 19 19 19 18 20 20 21 21 22 22 22 23 23 23 23 23
14 14 16 16 17 18 18 19 20 20 20 20 20 21 21 21 23 22 22 23 22 23 23 24 24 24 25
14 16 17 17 18 20 21 21 22 23 21 21 21 21 22 22 23 23 24 24 23 23 24 25 25 25 26
16 17 18 19 20 22 23 24 24 24 23 22 22 23 24 24 22 24 25 26 26 25 26 26 26 26 26
19 19 20 21 22 24 25 26 25 25 24 23 23 24 25 25 24 24 26 24 26 27 28 28 28 27 27
21 21 21 22 24 26 27 27 25 24 24 24 25 26 26 26 25 27 26 26 27 28 29 29 28 29 29
23 23 23 24 26 28 28 28 26 25 23 24 26 27 27 25 27 25 26 28 29 29 31 31 26 28 31
27 26 26 29 29 30 31 29 27 25 25 25 26 27 27 25 23 27 26 29 30 29 31 33 32 25 30
Wind_Direction
280 279 272 274 280 294 299 299 301 304 304 299 294 290 292 296 295 281 270 263 268 280 294 289 277 284 280
269 264 266 269 281 288 293 296 297 299 299 296 296 297 300 301 299 290 286 283 283 285 290 291 285 280 278
250 261 269 279 286 290 293 295 297 300 300 299 297 296 295 294 293 293 292 289 288 290 291 292 289 287 284
260 268 278 284 288 289 293 294 296 298 298 298 296 295 296 294 294 291 288 286 287 290 292 294 295 291 283
268 278 284 287 288 291 292 293 296 297 297 298 297 300 299 300 298 296 293 292 290 288 289 291 292 291 292
277 282 284 286 290 291 290 294 293 293 296 297 299 300 301 300 299 296 295 295 296 297 297 296 294 291 288
280 286 288 291 290 289 291 293 292 293 296 298 297 299 301 300 297 295 294 296 296 297 297 297 296 294 292
285 289 290 291 292 293 293 292 294 295 296 296 298 298 297 296 295 295 297 299 298 298 298 297 296 294 290
288 292 293 294 293 294 293 293 293 295 294 295 296 296 295 296 297 298 299 298 297 298 297 294 292 289 287
291 294 295 296 296 294 292 293 293 293 294 294 293 293 295 298 298 298 298 296 296 296 294 291 289 287 283
289 294 297 298 297 295 295 296 296 293 291 292 291 294 298 301 299 298 295 294 294 293 291 289 287 284 280
286 290 292 295 298 299 299 299 297 294 291 291 292 294 297 300 298 297 295 293 293 290 286 285 284 281 279
283 285 288 292 296 299 301 301 298 294 292 290 290 293 297 300 298 295 293 295 294 289 287 286 283 281 279
281 284 289 292 295 296 300 302 300 295 291 290 291 294 297 299 300 294 292 291 289 289 288 287 286 285 281
282 285 288 292 294 297 300 302 300 293 291 291 293 296 299 300 299 296 295 294 291 289 288 288 288 287 283
282 285 290 294 295 295 297 301 299 294 291 292 295 297 299 302 299 296 295 292 291 292 292 290 288 288 286
280 283 290 292 289 289 292 297 297 293 293 294 295 298 300 299 295 296 293 292 294 294 292 293 295 291 285
Height
3097 3096 3095 3095 3094 3093 3093 3092 3092 3091 3090 3089 3089 3089 3088 3087 3087 3087 3086 3086 3086 3086 3084 3084 3084 3083 3083
3092 3091 3091 3091 3090 3090 3090 3089 3088 3087 3087 3086 3086 3084 3083 3082 3082 3082 3081 3081 3080 3080 3079 3079 3078 3078 3078
3088 3088 3087 3087 3086 3086 3086 3085 3084 3083 3082 3081 3081 3080 3079 3078 3077 3076 3075 3075 3074 3073 3072 3072 3072 3071 3071
3085 3085 3084 3083 3083 3082 3082 3081 3079 3078 3077 3076 3076 3075 3074 3073 3072 3071 3070 3069 3068 3067 3067 3066 3065 3066 3066
3081 3081 3080 3079 3078 3077 3077 3076 3074 3073 3072 3071 3070 3069 3068 3067 3066 3065 3064 3063 3062 3062 3061 3061 3060 3060 3059
3076 3075 3074 3074 3073 3073 3072 3071 3071 3069 3068 3067 3066 3065 3063 3062 3061 3060 3058 3058 3057 3056 3055 3054 3054 3053 3053
3071 3070 3070 3070 3069 3068 3067 3066 3066 3065 3064 3063 3062 3060 3059 3058 3057 3055 3053 3052 3051 3050 3050 3049 3048 3047 3046
3066 3066 3065 3065 3064 3064 3063 3062 3061 3060 3060 3059 3057 3056 3055 3054 3052 3051 3049 3048 3046 3045 3044 3043 3042 3041 3041
3062 3061 3061 3060 3059 3058 3058 3058 3057 3055 3055 3054 3053 3051 3050 3049 3047 3045 3044 3042 3040 3040 3038 3037 3036 3036 3035
3058 3057 3056 3055 3055 3054 3053 3052 3051 3050 3049 3049 3047 3046 3045 3043 3041 3040 3038 3036 3035 3033 3032 3031 3030 3029 3029
3053 3052 3051 3051 3050 3049 3048 3047 3046 3045 3043 3042 3040 3039 3038 3037 3035 3033 3031 3029 3028 3027 3025 3024 3023 3022 3022
3048 3048 3048 3046 3045 3044 3042 3041 3040 3039 3037 3035 3034 3033 3031 3030 3028 3026 3023 3022 3021 3019 3018 3016 3015 3014 3014
3043 3043 3042 3041 3040 3038 3036 3035 3033 3031 3030 3029 3027 3025 3024 3023 3022 3019 3016 3014 3012 3011 3009 3008 3007 3006 3006
3038 3037 3036 3034 3033 3031 3030 3028 3026 3024 3022 3020 3019 3017 3016 3014 3013 3011 3007 3007 3004 3002 3001 2999 2998 2997 2996
3031 3030 3028 3027 3026 3024 3022 3021 3019 3017 3014 3012 3011 3009 3008 3007 3005 3002 3000 2998 2995 2994 2992 2991 2990 2988 2986
3023 3022 3021 3019 3019 3017 3015 3013 3011 3009 3007 3005 3003 3001 3000 3000 2996 2995 2992 2989 2987 2985 2983 2980 2982 2979 2976
3015 3014 3012 3011 3010 3009 3007 3005 3003 3001 2999 2997 2995 2993 2992 2991 2991 2985 2983 2980 2977 2976 2973 2970 2969 2971 2966